Retour au catalogue

STARLINK-31332

ActifCommunicationsVLEO
NORAD 59566·PAYLOAD·🇺🇸 United States

Lancé Apr 23, 2024 depuis Cape Canaveral Space Force Station

Loading…

Prochains Passages (prochaines 24 heures)

TLE

FraisSource: CelesTrak SupGP

Époque: Sep 14, 2026, 20:43 UTC

1 59566C 24076C   26257.86368056  .00049614  00000+0  17975-2 0  2575
2 59566  43.0025  20.4232 0001606 278.1781 201.5525 15.27544748    15

Suivez STARLINK-31332 en temps réel avec AllMySat

Download on the App Store